Regional Weather Roundup
Issued by NWS

Home | Current Version | Previous Version | Text Only | Print | Product List | Glossary On
Versions: 1 2 3 4 5 6 7 8 9 10 11 12 13 14 15 16 17 18 19 20 21 22 23 24 25 26 27 28 29 30 31 32 33 34 35 36 37 38 39 40 41 42 43 44 45 46 47 48 49 50
000
ASUS43 KDMX 220701
RWRIA

WEATHER ROUNDUP FOR IOWA
NATIONAL WEATHER SERVICE DES MOINES IA
100 AM CST THU FEB 22 2018

NOTE: "FAIR" INDICATES FEW OR NO CLOUDS BELOW 12,000 FEET WITH NO
SIGNIFICANT WEATHER AND/OR OBSTRUCTIONS TO VISIBILITY.

* - THESE STATIONS ARE NOT NWS STATIONS...THUS NOT UNDER NWS
QUALITY CONTROL.  THEY ALSO DO NOT REPORT WEATHER SUCH
AS PRECIPITATION OR FOG.

IAZ001>003-012>014-020>022-031>034-043>046-220800-
   NORTHWEST IOWA

CITY           SKY/WX    TMP DP  RH WIND       PRES   REMARKS
CARROLL *      CLOUDY    21  19  93 E7        30.52S WCI  13
CHEROKEE *     CLOUDY    20  15  82 E3        30.53F
DENISON *      CLOUDY    21  16  79 SE6G12    30.55R WCI  14
LE MARS *      CLOUDY    18  12  79 E5        30.51F WCI  11
ORANGE CITY *  CLOUDY    18  16  93 E6        30.50F WCI   9
SHELDON *      CLOUDY    12  10  92 SE5       30.50F WCI   4
SIOUX CITY     CLOUDY    20  12  71 E6        30.52F WCI  12
SPENCER        MIX PCPN  14  10  84 NE6       30.51F WCI   5
STORM LAKE *   CLOUDY    19  14  79 E9        30.50F WCI   9
$$

IAZ055>058-069>071-079>083-090>094-220800-
   SOUTHWEST IOWA

CITY           SKY/WX    TMP DP  RH WIND       PRES   REMARKS
ATLANTIC *     MOCLDY    23  19  86 NE6G13    30.50F WCI  16
AUDUBON *      MOCLDY    21  18  86 CALM      30.50F
CLARINDA *     CLOUDY    27  21  80 CALM      30.55R
COUNCIL BLFS * MOCLDY    23  21  93 NE8       30.51R WCI  14
CRESTON *      CLOUDY    23  18  80 E13G21    30.48F WCI  11
HARLAN  *      MIX PCPN  21  19  93 NE9       30.53F WCI  11
LAMONI         CLOUDY    24  19  81 NE10      30.49R WCI  14
RED OAK *      CLOUDY    25  19  80 NE5       30.53R WCI  19
SHENANDOAH *   MOCLDY    27  19  74 NE9       30.53R WCI  17
$$

IAZ047>049-059>061-072>074-084-220800-
   CENTRAL IOWA

CITY           SKY/WX    TMP DP  RH WIND       PRES   REMARKS
AMES           CLOUDY    23  16  74 E9        30.55R WCI  13
ANKENY *       CLOUDY    23  18  80 NE7       30.55S WCI  15
BOONE *        CLOUDY    23  18  80 E12       30.52R WCI  12
CHARITON *     CLOUDY    23  19  86 NE13      30.51R WCI  11
DES MOINES     CLOUDY    25  15  66 E7        30.53S WCI  17
GRINNELL*      CLOUDY    24  18  78 E12       30.54S WCI  13
KNOXVILLE *    CLOUDY    25  18  74 E7        30.51S WCI  17
MARSHALLTOWN   CLOUDY    23  16  74 NE10      30.52F WCI  12
NEWTON *       CLOUDY    25  18  74 NE12G18   30.53S WCI  14
PELLA *        MOCLDY    25  18  75 E6        30.55S WCI  18
$$

IAZ004>006-015-016-023>025-035-036-220800-
   NORTH CENTRAL IOWA

CITY           SKY/WX    TMP DP  RH WIND       PRES   REMARKS
CLARION *      CLOUDY    21  21 100 E12       30.54F WCI   9
ESTHERVILLE    FAIR      11   7  84 E8        30.53F WCI  -1
FORT DODGE *   CLOUDY    21  16  81 E10       30.53F WCI  10
MASON CITY     CLOUDY    21  14  74 E12       30.56F WCI   9
FOREST CITY *  CLOUDY    21  18  86 E5        30.53F WCI  15
WEBSTER CITY * CLOUDY    21  16  79 E12       30.51F WCI   9
IOWA FALLS *   CLOUDY    23  18  79 E8        30.54F WCI  14
$$

IAZ007>011-017>019-026>030-037>042-050>054-066-220800-
   NORTHEAST IOWA

CITY           SKY/WX    TMP DP  RH WIND       PRES   REMARKS
CEDAR RAPIDS   MOCLDY    25  15  66 NE10      30.53F WCI  15
CHARLES CITY * CLOUDY    23  18  80 E10       30.56F WCI  12
CLINTON *      FAIR      25  19  78 NE13      30.57F WCI  14
DECORAH *      CLOUDY    21  16  79 E7        30.57F WCI  13
DUBUQUE        MOCLDY    23  12  62 NE13      30.56S WCI  11
MONTICELLO *   CLOUDY    25  14  63 E10       30.56S WCI  15
OELWEIN *      CLOUDY    23  19  86 NE9       30.56F WCI  13
WATERLOO       CLOUDY    23  16  74 NE9       30.56F WCI  13
$$

IAZ064-065-067-068-078-220800-
   EAST CENTRAL IOWA

CITY           SKY/WX    TMP DP  RH WIND       PRES   REMARKS
DAVENPORT      FAIR      26  17  68 NE10      30.58R WCI  16
IOWA CITY      FAIR      27  16  63 NE9       30.56F WCI  18
MT. PLEASANT * CLOUDY    27  21  80 NE8       30.54S WCI  18
MUSCATINE *    FAIR      28  19  69 NE14      30.56S WCI  17
QUAD CITIES    FAIR      27  18  69 NE10      30.55S WCI  17
$$

IAZ062-063-075>077-085>089-095>099-220800-
   SOUTHEAST IOWA

CITY           SKY/WX    TMP DP  RH WIND       PRES   REMARKS
BURLINGTON     CLOUDY    28  21  75 NE12      30.52S WCI  18
FAIRFIELD *    CLOUDY    27  18  69 NE13      30.53R WCI  16
FORT MADISON * FAIR      27  23  86 NE9       30.52F WCI  17
KEOKUK *       CLOUDY    28  23  80 NE10      30.49F WCI  19
OSKALOOSA *    CLOUDY    25  19  79 E12       30.53S WCI  14
OTTUMWA        CLOUDY    26  18  71 E13       30.52S WCI  15
WASHINGTON *   FAIR      27  23  86 NE10      30.55S WCI  17
$$

ABBREVIATIONS USED IN REMARKS
   TC - TEMPERATURES IN CELSIUS
  WCI - WIND CHILL INDEX
   HX - HEAT INDEX
  VSB - VISIBILITY
$$





USA.gov is the U.S. government's official web portal to all federal, state and local government web resources and services.